EHI
3 1 0 0 0 0 0 1 2 3 3 3 3 3 2 3 3 2 1 1 0 1 2 2 2 1 1 2 2 2 2 4 7 7 5 3 2 4 6 7 6 4 4
3 2 1 0 0 1 1 2 2 3 3 3 3 3 3 3 2 1 0 0 0 0 1 1 1 1 0 1 1 2 2 3 6 7 6 3 1 2 3 5 4 5 7
4 4 3 2 2 3 2 2 3 3 3 2 1 2 3 2 1 0 0 0 0 0 0 0 0 0 0 0 0 1 1 3 4 5 5 3 1 1 1 2 2 5 10
3 4 3 3 3 4 3 3 4 4 3 2 1 2 2 1 1 0 0 0 0 0 0 0 0 0 0 1 1 1 1 2 3 4 4 3 3 2 1 1 1 3 7
2 2 1 2 3 2 1 2 3 3 3 2 2 2 2 1 1 1 1 0 0 0 0 0 0 0 0 1 1 1 1 1 1 2 3 3 3 3 2 1 1 1 2
1 0 0 1 1 1 0 1 1 1 1 1 1 1 1 1 1 1 1 0 0 0 0 0 0 0 0 0 1 1 0 0 0 1 1 2 2 2 2 1 1 1 1
0 0 0 0 0 0 0 0 0 0 0 0 0 0 0 0 0 0 0 0 0 0 0 0 0 0 0 0 0 0 0 0 0 0 0 1 1 1 1 1 1 1 0
0 0 0 0 0 0 0 0 0 0 0 0 0 0 0 0 0 0 0 0 0 0 0 0 0 0 0 0 0 0 0 0 0 0 0 0 0 0 0 0 0 0 0
0 0 0 0 0 0 0 0 0 0 0 0 0 0 0 0 0 0 0 0 0 0 0 0 0 0 0 0 0 0 0 0 0 0 0 0 0 0 0 0 0 0 0
0 0 0 0 0 0 0 0 0 0 0 0 0 0 0 0 0 0 0 0 0 0 0 0 0 0 0 0 0 0 0 0 0 0 0 0 0 0 0 0 0 0 0
0 0 0 0 0 0 0 0 0 0 0 0 0 0 0 0 0 0 0 0 0 0 0 0 0 0 0 0 0 0 0 0 0 0 0 0 0 0 0 0 0 0 0
0 0 0 0 0 0 0 0 0 0 0 0 0 0 0 0 0 0 0 0 0 0 0 0 0 0 0 0 0 0 0 0 0 0 0 0 0 0 0 0 0 0 0
0 0 0 0 0 0 0 0 0 0 0 0 0 0 0 0 0 0 0 0 0 0 0 0 0 0 0 0 0 0 0 0 0 0 0 0 0 0 0 0 0 0 0
0 0 0 0 0 0 0 0 0 0 0 0 0 0 0 0 0 0 0 0 0 0 0 0 0 0 0 0 0 0 0 0 0 0 0 0 0 0 0 0 0 0 0
0 0 0 0 0 0 0 0 0 0 0 0 0 0 0 0 0 0 0 0 0 0 0 0 0 0 0 0 0 0 0 0 0 0 0 0 0 0 0 0 0 0 0
0 0 0 0 0 0 0 0 0 0 0 0 0 0 0 0 0 0 0 0 0 0 0 0 0 0 0 0 0 0 0 0 0 0 0 0 0 0 0 0 0 0 0
0 0 0 0 0 0 0 0 0 0 0 0 0 0 0 0 0 0 0 0 0 0 0 0 0 0 0 0 0 0 0 0 0 0 0 0 0 0 0 0 0 0 0
0 0 0 0 0 0 0 0 0 0 0 0 0 0 0 0 0 0 0 0 0 0 0 0 0 0 0 0 0 0 0 0 0 0 0 0 0 0 0 0 0 0 0
0 0 0 0 0 0 0 0 0 0 0 0 0 0 0 0 0 0 0 0 0 0 0 0 0 0 0 0 0 0 0 0 0 0 0 0 0 0 0 0 0 0 0
0 0 0 0 0 0 0 0 0 0 0 0 0 0 0 0 0 0 0 0 0 0 0 0 0 0 0 0 0 0 0 0 0 0 0 0 0 0 0 0 0 0 0
0 0 0 0 0 0 0 0 0 0 0 0 0 0 0 0 0 0 0 0 0 0 0 0 0 0 0 0 0 0 0 0 0 0 0 0 0 0 0 0 0 0 0
0 0 0 0 0 0 0 0 0 0 0 0 0 0 0 0 0 0 0 0 0 0 0 0 0 0 0 0 0 0 0 0 0 0 0 0 0 0 0 0 0 0 0
0 0 0 0 0 0 0 0 0 0 0 0 0 0 0 0 0 0 0 0 0 0 0 0 0 0 0 0 0 0 0 0 0 0 0 0 0 0 0 0 0 0 0
0 0 0 0 0 0 0 0 0 0 0 0 0 0 0 0 0 0 0 0 0 0 0 0 0 0 0 0 0 0 0 0 0 0 0 0 0 0 0 0 0 0 0
0 0 0 0 0 0 0 0 0 0 0 0 0 0 0 0 0 0 0 0 0 0 0 0 0 0 0 0 0 0 0 0 0 0 0 0 0 0 0 0 0 0 0
0 0 0 0 0 0 0 0 0 0 0 0 0 0 0 0 0 0 0 0 0 0 0 0 0 0 0 0 0 0 0 0 0 0 0 0 0 0 0 0 0 0 0
Wind_Speed
6 6 5 5 6 6 5 5 5 4 3 3 3 2 2 2 2 2 3 3 3 3 3 4 2 4 5 5 5 5 6 6 5 6 7 8 11 11 10 11 11 13 14
5 5 4 4 4 5 4 3 3 3 3 3 3 3 3 3 2 2 2 3 4 4 4 4 5 4 4 5 5 5 6 5 5 5 6 6 7 9 11 10 11 13 12
5 5 4 3 3 3 3 3 4 3 4 4 3 3 2 3 2 2 2 3 4 4 5 5 5 5 6 5 5 6 8 6 5 6 5 5 6 4 6 9 10 11 10
5 4 4 3 2 2 2 2 3 3 4 4 5 6 5 5 5 4 4 5 4 5 5 5 5 6 6 5 7 6 6 7 7 5 6 7 6 5 5 5 7 10 10
4 4 3 3 2 2 2 2 3 3 4 5 5 6 6 6 5 5 5 6 5 5 5 6 5 6 6 6 7 6 7 6 7 6 5 6 6 7 7 7 6 6 8
5 4 4 3 2 2 2 2 3 3 4 5 5 6 7 7 8 7 7 6 5 5 5 6 6 7 6 6 7 7 9 8 8 7 6 6 6 6 6 8 7 6 6
5 5 4 3 2 1 1 2 3 3 4 5 5 6 6 7 7 8 7 7 7 6 5 6 6 7 7 7 7 8 9 9 9 8 7 7 7 6 6 7 7 8 6
5 4 3 2 1 0 1 2 4 4 5 5 5 6 6 7 6 6 8 8 7 7 7 8 8 8 8 9 8 8 9 8 9 10 9 7 7 6 6 6 7 8 7
5 4 3 2 1 1 2 4 4 5 5 6 6 5 6 7 8 8 8 7 6 8 8 8 9 9 9 9 9 8 9 8 10 10 10 9 7 7 7 7 6 7 8
5 4 3 1 0 1 2 3 4 5 5 6 6 6 6 7 7 8 8 8 8 8 9 9 9 9 9 9 9 10 8 9 9 8 9 9 8 7 7 7 7 6 7
4 3 1 0 1 2 3 4 4 5 5 6 7 7 7 7 7 7 8 8 8 8 9 9 9 9 9 9 9 10 10 10 10 10 10 10 10 8 7 7 7 7 7
3 2 1 1 2 3 4 4 4 5 6 6 6 7 7 7 8 8 8 8 8 9 9 9 9 10 10 9 10 11 11 11 11 10 10 10 9 9 8 7 8 7 7
2 1 0 1 3 4 4 5 5 5 6 6 7 7 7 7 8 8 8 8 9 9 9 9 10 10 10 10 10 10 10 11 11 10 10 10 10 9 8 8 8 7 7
3 2 1 1 2 3 4 5 5 6 6 7 8 7 8 8 8 8 8 8 9 9 9 9 9 10 10 10 10 10 10 10 10 10 10 10 10 10 9 8 9 8 7
3 2 1 1 2 3 3 4 5 5 6 7 8 8 8 8 8 8 8 8 9 9 9 9 9 9 9 8 8 9 10 10 10 10 9 10 9 8 8 8 7 7 7
3 2 2 2 2 3 4 4 5 5 6 7 7 7 8 8 8 8 8 8 8 9 9 9 9 9 7 4 5 9 11 11 11 10 9 9 9 9 9 10 9 8 8
3 2 2 2 2 3 3 5 5 5 6 7 7 7 8 8 8 9 9 9 9 9 9 9 9 9 7 3 6 8 11 12 10 10 8 8 7 7 9 10 11 10 9
3 2 2 1 2 2 3 4 5 5 6 7 7 7 8 9 9 9 9 9 8 8 8 8 9 9 6 3 6 8 11 12 11 10 9 9 7 7 7 8 8 8 7
2 1 1 1 1 2 3 4 5 5 6 7 7 8 8 9 9 9 9 8 8 8 8 8 8 9 7 3 5 8 9 9 10 9 8 8 8 4 5 7 7 7 6
3 2 1 1 1 2 3 5 5 5 6 7 8 8 8 8 9 9 9 8 8 8 8 8 8 8 8 3 4 7 8 8 7 6 6 5 6 3 4 7 8 8 7
3 3 2 2 1 2 3 5 5 5 6 7 7 8 7 8 8 8 8 8 8 8 8 8 8 7 6 4 3 5 7 7 7 6 5 2 6 6 6 7 7 6 5
4 4 3 2 2 2 4 5 5 6 6 7 7 8 7 8 7 7 7 7 7 8 7 6 7 5 3 3 2 4 6 8 8 6 5 1 4 5 6 6 4 4 5
4 3 3 3 3 3 4 5 5 6 7 7 7 7 8 7 7 7 8 7 6 6 6 6 6 6 5 2 4 6 7 8 7 5 4 3 3 5 7 8 7 7 8
4 4 4 4 3 3 4 5 5 6 7 8 7 7 7 7 6 6 6 6 6 6 6 7 7 7 6 5 5 4 4 6 7 6 4 7 7 8 6 6 9 9 7
5 4 4 5 5 4 4 5 5 5 7 8 7 7 6 6 6 6 5 6 6 5 7 8 7 8 7 7 8 8 7 6 5 5 4 4 4 6 6 6 6 7 7
5 5 6 6 5 5 5 5 4 5 7 7 6 6 6 5 6 6 5 4 6 5 8 9 9 7 6 8 9 8 8 8 7 6 5 4 4 4 5 5 6 6 6
Wind_Direction
113 111 104 99 95 86 79 67 57 55 29 20 356 353 357 349 352 2 16 345 331 323 300 300 283 264 259 260 257 258 251 247 246 251 252 245 238 235 233 231 231 227 226
139 135 132 123 108 95 82 77 64 48 16 21 348 341 338 323 341 353 13 351 340 325 302 315 294 283 274 257 258 256 266 257 238 252 261 257 237 226 228 226 226 229 225
166 158 149 137 123 101 74 51 41 27 17 356 333 336 302 285 309 329 331 344 329 321 322 312 301 297 280 272 268 261 258 261 252 241 255 264 261 264 228 227 231 229 228
174 167 161 151 127 93 75 56 36 20 9 343 348 336 327 328 336 319 330 319 312 314 310 305 301 294 287 279 265 257 265 264 264 245 242 259 286 281 271 239 229 227 229
173 163 154 138 110 91 69 54 34 14 6 349 338 319 324 325 321 322 320 308 304 301 303 302 300 294 284 284 281 280 268 266 269 269 257 249 247 249 263 266 252 236 232
170 160 144 132 116 89 63 40 26 7 353 338 338 330 327 322 320 316 316 305 302 297 304 300 298 287 288 286 278 275 264 265 269 272 266 258 255 250 253 263 264 259 248
170 163 159 152 140 104 49 6 357 344 339 332 330 327 324 308 298 304 310 305 304 304 319 312 301 294 290 283 279 271 272 267 261 259 260 261 260 264 264 269 273 270 264
164 160 155 153 142 87 345 333 336 331 330 327 324 318 313 305 313 320 312 305 304 311 319 303 293 290 286 282 278 274 265 261 259 258 260 260 257 255 256 261 270 271 262
158 158 153 148 139 333 339 333 330 327 327 324 319 309 315 315 314 306 290 296 305 300 304 299 291 287 284 281 278 270 271 270 264 260 250 248 252 249 250 251 255 265 268
165 162 158 153 333 340 335 324 326 328 323 319 316 321 317 310 306 302 311 306 302 301 298 294 292 288 283 276 272 272 263 263 263 262 266 261 257 253 250 250 248 249 262
172 167 163 120 310 324 333 326 330 324 322 323 321 316 313 311 305 297 299 300 299 299 292 291 290 287 283 279 273 271 273 266 265 263 257 254 255 256 254 248 248 248 247
165 163 156 312 323 332 333 335 331 326 324 325 318 315 314 310 307 306 305 301 297 293 292 291 288 285 283 280 276 273 273 268 265 262 261 260 255 247 252 252 250 250 250
180 180 207 312 326 334 333 333 328 333 329 327 319 320 318 316 311 309 306 302 299 296 294 290 285 285 286 281 276 274 274 271 268 265 260 257 256 253 250 249 249 248 248
193 216 250 294 319 326 326 325 331 335 329 325 321 323 320 318 313 311 309 305 303 300 299 295 291 288 286 284 280 276 275 274 271 266 260 256 252 250 247 248 245 247 251
208 219 258 292 308 319 318 327 331 333 328 322 322 324 321 319 315 314 312 309 305 303 305 300 296 291 285 284 295 292 282 277 272 266 260 256 254 269 267 265 257 249 245
213 224 248 284 304 312 318 327 328 330 323 321 324 327 323 322 322 318 315 311 308 308 305 301 299 295 294 358 333 296 289 282 273 269 263 257 241 238 238 253 264 269 257
215 235 263 283 295 308 322 319 325 322 319 321 323 326 326 323 322 319 317 315 313 309 305 302 299 295 298 296 283 278 281 277 273 270 264 259 248 230 238 226 226 237 245
215 224 255 271 290 309 314 312 315 316 315 319 323 326 324 323 322 317 316 316 312 310 307 305 302 298 300 279 276 279 269 269 266 262 259 257 259 248 251 244 234 232 224
194 208 245 271 294 309 320 310 308 314 317 323 326 327 324 321 318 318 319 317 313 310 308 305 303 301 302 292 281 283 277 269 267 263 257 252 246 227 236 241 240 235 227
174 190 212 235 254 298 305 300 305 314 321 326 324 321 317 315 314 315 315 314 309 306 307 307 303 301 303 303 282 286 283 283 278 265 252 236 240 215 223 238 239 234 228
175 185 212 243 268 282 286 293 305 315 321 320 316 313 313 310 309 310 309 308 307 311 309 308 304 300 300 289 265 279 285 293 289 280 269 236 175 201 225 248 252 246 246
183 194 215 245 253 262 274 287 302 314 314 312 311 312 312 311 316 312 308 307 307 304 303 305 308 308 301 293 285 268 271 292 288 284 284 267 156 202 226 238 233 223 239
191 210 229 244 246 247 267 286 303 308 308 307 308 310 310 308 307 308 309 305 303 309 321 322 323 326 329 306 215 245 259 267 275 287 314 294 223 224 223 221 219 222 227
201 216 235 248 252 257 266 280 291 299 300 303 307 305 303 308 319 312 315 320 323 326 324 324 326 326 328 337 341 315 270 244 246 252 233 215 222 234 238 200 206 223 227
204 220 236 250 260 265 271 278 284 293 299 302 303 303 305 316 310 311 317 315 328 337 311 319 321 324 327 355 345 318 314 317 327 311 271 249 227 220 214 215 220 219 214
205 219 234 245 253 259 266 274 279 285 293 296 303 306 308 317 313 316 315 235 249 249 243 253 275 298 301 311 306 299 291 289 291 283 258 250 242 233 226 221 218 218 220